Probability
0 0 0 0 0 0 0 0 0 1 2 4 5 6 8 7 3 3 3 2 0 0 0 0 0 0 0 0 0 0 0 0 0 0 0 0 0 0
0 0 0 0 0 0 0 0 0 0 1 2 2 3 4 3 2 3 4 2 0 0 0 0 0 0 0 0 0 0 0 0 0 0 0 0 0 0
0 0 0 0 0 0 0 0 0 0 0 0 0 0 0 1 1 3 3 1 1 0 0 0 0 0 0 0 0 0 0 0 0 0 0 0 0 0
0 0 0 0 0 0 0 0 0 0 0 0 0 0 0 0 1 1 1 0 0 0 0 0 0 0 0 0 0 0 0 0 0 0 0 0 0 0
0 0 0 0 0 0 0 0 0 0 0 0 0 0 0 0 0 0 0 0 0 0 0 0 0 0 0 0 0 0 0 0 0 0 0 0 0 0
0 0 0 0 0 0 0 0 0 0 0 0 0 0 0 0 0 0 1 2 1 0 0 0 0 0 0 0 0 0 0 0 0 0 0 0 0 0
0 0 0 0 0 0 0 0 0 0 0 0 0 0 0 0 0 0 1 2 2 0 0 0 0 0 0 0 0 0 0 0 0 0 0 0 0 0
0 0 0 0 0 0 0 0 0 0 0 0 0 0 0 0 0 0 0 1 1 0 0 0 0 0 0 0 0 0 0 0 0 0 0 0 0 0
0 0 0 0 0 0 0 0 0 0 0 0 0 0 0 0 0 0 0 0 0 0 0 0 0 0 0 0 0 0 0 0 0 0 0 0 0 0
0 0 0 0 0 0 0 0 0 0 0 0 0 0 0 0 0 0 0 0 0 0 0 0 0 0 0 0 0 0 0 0 0 0 0 0 0 0
0 0 0 0 0 0 0 0 0 0 0 0 0 0 0 0 0 0 0 0 0 0 0 0 0 0 0 0 0 0 0 0 0 0 0 0 0 0
0 0 0 0 0 0 0 0 0 0 0 0 0 0 0 0 0 0 0 0 0 0 0 0 0 0 0 0 0 0 0 0 0 0 0 0 0 0
0 0 0 0 0 0 0 0 0 0 0 0 0 0 0 0 0 0 0 0 0 0 0 0 0 0 0 0 0 0 0 0 0 0 0 0 0 0
0 0 0 0 0 0 0 0 0 0 0 0 0 0 0 0 0 0 0 0 0 0 0 0 0 0 0 0 0 0 0 0 0 0 0 0 0 0
0 0 0 0 0 0 0 0 0 0 0 0 0 0 0 0 0 0 0 0 0 0 0 0 0 0 0 0 0 0 0 0 0 0 0 0 0 0
0 0 0 0 0 0 0 0 0 0 0 0 0 0 0 0 0 0 0 0 0 0 0 0 0 0 0 0 0 0 0 0 0 0 0 0 0 0
0 0 0 0 0 0 0 0 0 0 0 0 0 0 0 0 0 0 0 0 0 0 0 0 0 0 0 0 0 0 0 0 0 0 0 0 0 0
0 0 0 0 0 0 0 0 0 0 0 0 0 0 0 0 0 0 0 0 0 0 0 0 0 0 0 0 0 0 0 0 0 0 0 0 0 0
0 0 0 0 0 0 0 0 0 0 0 0 0 0 0 0 0 0 0 0 0 0 0 0 0 0 0 0 0 0 0 0 0 0 0 0 0 0
0 0 0 0 0 0 0 0 0 0 0 0 0 0 0 0 0 0 0 0 0 0 0 0 0 0 0 0 0 0 0 0 0 0 0 0 0 0
0 0 0 0 0 0 0 0 0 0 0 0 0 0 0 0 0 0 0 0 0 0 0 0 0 0 0 0 0 0 0 0 0 0 0 0 0 0
0 0 0 0 0 0 0 0 0 0 0 0 0 0 0 0 0 0 0 0 0 0 0 0 0 0 0 0 0 0 0 0 0 0 0 0 0 0
0 0 0 0 0 0 0 0 0 0 0 0 0 0 0 0 0 0 0 0 0 0 0 0 0 0 0 0 0 0 0 0 0 0 0 0 0 0
Wind_Speed
3 3 3 3 3 3 3 4 5 5 4 3 3 4 4 4 2 4 4 3 3 3 5 6 7 9 10 12 13 14 15 16 18 22 26 29 29 28
2 3 4 4 3 3 4 3 3 4 4 4 4 5 6 5 3 4 4 2 4 3 4 5 7 8 9 10 11 12 14 15 19 22 25 25 24 25
2 3 4 5 5 4 4 4 4 4 6 5 4 5 6 6 4 3 3 3 2 2 3 4 5 7 7 7 7 9 12 16 20 24 25 25 24 23
5 5 6 5 6 6 5 5 4 4 5 6 5 5 5 5 4 3 2 3 2 2 1 3 4 5 5 4 4 7 12 17 21 23 24 24 24 22
6 7 7 7 7 7 7 7 5 5 4 4 5 4 4 4 4 3 2 2 2 2 1 1 3 4 4 2 1 6 11 16 19 21 21 21 20 19
8 8 8 9 8 8 7 8 7 6 6 6 6 6 6 7 6 4 3 2 1 0 1 2 2 2 3 3 4 6 10 14 16 17 17 17 16 15
8 9 9 9 10 9 9 10 9 8 8 7 8 8 9 9 8 6 5 3 1 1 0 0 0 0 2 3 5 7 8 11 12 13 14 13 13 13
8 7 8 7 6 6 8 10 11 10 10 9 9 9 10 9 8 7 6 5 3 3 2 1 2 1 1 2 6 7 7 8 9 10 11 11 11 11
8 7 7 8 6 6 5 5 8 8 7 9 11 11 11 10 10 9 7 5 4 4 2 2 2 2 2 4 7 6 6 6 6 7 8 9 9 9
8 7 7 8 9 8 6 7 8 9 9 9 9 9 10 10 9 6 4 3 2 4 4 2 2 2 2 2 5 5 6 6 7 7 8 9 9 10
7 8 7 8 10 11 5 6 7 5 5 3 3 4 4 7 10 9 8 6 4 4 4 3 2 1 1 2 1 4 6 7 9 9 10 10 10 10
5 7 11 9 9 11 7 7 7 7 7 5 3 4 6 8 9 10 10 9 6 5 5 3 2 2 1 1 1 1 3 6 9 10 11 12 11 10
3 5 8 8 8 8 7 7 6 8 6 6 6 7 7 7 9 9 9 8 8 6 5 4 2 2 1 0 1 1 1 2 4 6 10 12 13 12
3 5 7 5 7 7 7 7 9 9 6 6 7 7 8 8 8 9 8 7 5 6 6 6 3 2 2 2 1 1 1 2 2 3 4 7 11 13
5 7 4 1 3 4 5 6 7 6 7 7 7 7 7 8 8 7 7 6 4 3 5 7 6 4 3 3 2 1 1 1 2 1 2 3 3 4
5 6 4 2 1 2 1 1 4 6 6 6 7 7 7 7 7 8 8 8 6 5 5 7 6 7 5 3 2 2 1 0 1 1 1 1 1 1
3 6 5 4 2 2 3 4 5 5 5 6 6 7 7 8 7 7 7 8 7 8 8 8 7 5 4 4 3 2 2 1 1 2 1 1 1 1
4 4 3 2 2 3 3 3 4 5 6 6 6 7 7 8 8 7 8 8 8 8 8 8 9 6 4 2 6 5 4 3 2 0 0 1 1 2
6 3 3 2 2 2 2 4 4 4 4 5 6 6 7 7 7 7 7 8 8 7 7 8 8 9 8 6 4 6 7 5 4 2 1 1 1 2
6 4 4 3 1 0 2 3 3 3 4 4 5 5 6 6 6 7 6 8 8 8 7 7 8 9 9 9 7 5 5 6 6 5 4 3 2 1
6 5 4 3 2 2 1 1 2 2 3 4 3 4 5 5 6 6 6 5 6 7 8 8 8 8 8 6 6 5 4 3 4 5 6 5 3 2
6 6 5 4 4 3 3 3 2 1 1 3 2 3 4 4 5 6 6 7 6 7 8 7 7 8 7 7 7 7 6 4 1 2 3 3 4 3
7 7 6 7 6 5 5 5 5 3 2 3 2 2 3 4 4 5 5 6 6 7 8 8 7 7 7 8 7 7 8 7 5 4 2 3 4 6
Wind_Direction
289 302 324 347 339 349 350 345 329 324 328 352 342 350 330 314 314 274 267 173 221 252 271 283 286 284 279 270 253 237 223 209 197 186 180 179 180 180
314 339 337 345 346 338 337 338 330 322 316 327 322 323 321 307 289 286 284 196 220 252 280 293 298 297 291 278 253 227 208 194 181 173 171 172 173 175
17 23 19 9 357 352 350 347 344 330 310 314 322 324 318 316 312 288 270 255 214 218 279 304 314 314 302 284 250 213 191 177 169 165 164 165 168 175
62 51 37 32 22 13 358 1 355 336 315 320 328 327 323 328 322 301 278 256 247 166 285 321 333 332 322 299 245 192 173 164 160 159 160 163 169 176
67 59 48 39 29 28 14 11 3 4 353 338 350 353 343 348 337 320 283 268 251 173 211 318 355 353 356 350 174 160 155 153 152 154 157 162 169 176
70 60 50 42 30 21 28 24 18 19 31 25 24 20 13 4 357 346 332 302 277 267 30 28 40 26 39 57 104 130 139 141 144 147 152 159 167 172
80 73 64 55 41 25 27 24 21 21 32 33 31 27 21 10 4 352 345 339 334 355 301 299 227 230 96 99 103 114 123 131 137 144 151 159 168 174
82 79 89 74 84 81 61 47 32 27 24 23 32 26 19 9 0 3 8 9 4 356 343 1 338 346 71 94 118 122 126 133 142 152 159 168 176 182
71 60 58 58 34 59 103 122 72 50 20 16 34 19 13 5 355 9 21 20 13 351 351 21 9 355 15 89 119 136 143 152 161 170 178 185 191 196
71 64 60 53 30 1 37 53 57 52 35 32 31 26 22 360 348 356 9 40 52 33 21 26 16 9 357 69 141 166 178 186 194 200 203 203 206 210
72 54 40 51 17 346 23 44 42 58 109 87 16 356 351 1 356 358 3 4 23 35 24 23 14 11 32 24 132 192 203 206 211 216 217 216 215 219
109 100 66 36 17 2 26 36 35 23 14 30 31 16 18 26 22 14 2 1 7 21 22 9 6 19 55 65 2 201 220 223 223 225 224 222 214 222
85 81 70 37 31 21 24 40 4 321 344 7 19 17 14 16 15 17 11 2 2 12 10 0 4 3 351 342 164 185 234 238 224 227 224 221 213 216
59 72 79 55 53 42 43 9 326 316 356 6 10 11 10 10 6 1 2 360 358 4 5 356 345 340 320 309 263 207 213 228 233 231 219 202 213 223
70 67 75 133 191 110 62 341 337 5 6 4 5 4 2 3 349 350 349 339 313 4 21 358 344 334 319 314 309 292 231 200 217 226 212 193 197 203
139 138 176 238 212 82 188 342 32 28 358 1 358 356 354 354 357 358 350 345 344 355 16 3 349 334 324 332 334 346 350 303 114 93 94 91 87 174
166 175 174 167 159 86 64 42 20 21 10 9 2 358 358 357 359 1 353 347 353 354 358 358 348 335 339 339 333 353 352 3 67 94 111 117 126 132
254 174 149 128 74 51 31 36 38 26 7 3 6 1 357 355 354 356 356 353 353 352 354 356 351 341 314 47 16 352 359 1 9 93 188 178 158 156
230 172 152 130 96 71 41 28 31 40 1 357 6 0 355 352 353 353 2 357 352 351 352 357 358 352 341 340 19 14 351 343 338 339 319 293 246 190
219 178 172 164 159 79 29 21 17 17 10 359 5 359 354 352 356 351 6 6 347 349 353 4 7 352 334 329 324 330 358 344 341 337 333 312 282 223
200 193 195 194 203 205 231 303 337 0 9 334 0 357 347 346 355 350 353 3 331 350 354 3 3 321 305 316 324 342 2 17 347 334 331 320 309 279
211 209 211 218 223 225 227 250 267 264 268 288 349 342 338 337 342 341 346 345 347 351 347 348 351 340 340 344 342 347 355 348 304 252 276 301 323 329
218 223 222 222 224 221 228 231 248 264 268 290 305 313 324 328 327 332 336 337 341 343 338 342 347 346 347 344 343 344 349 346 338 316 294 217 240 260